Weather History for West Palm Beach, FL

Change the Weather History Date:

Thursday, October 6, 2011

  Actual Average Record
Temperature  
Mean Temperature 82 °F 80 °F  
Max Temperature 87 °F 86 °F 95 °F (1906)
Min Temperature 77 °F 74 °F 63 °F (1992)
Degree Days  
Heating Degree Days 0 0  
Month to date heating degree days 0 0  
Since 1 July heating degree days 0 0  
Cooling Degree Days 17 15  
Month to date cooling degree days 96 92  
Year to date cooling degree days 3988 3300  
Growing Degree Days 32 (Base 50)    
Moisture  
Dew Point 63 °F    
Average Humidity 55    
Maximum Humidity 62    
Minimum Humidity 48    
Precipitation  
Precipitation 0.00 in 0.19 in 4.34 in (1974)
Month to date precipitation 0.02 1.21  
Year to date precipitation 35.79 50.28  
Snow  
Snow 0.00 in - - ()
Month to date snowfall 0.0  
Since 1 July snowfall 0.0  
Since 1 September snowfall 0.0  
Snow Depth 0.00 in    
Sea Level Pressure  
Sea Level Pressure 30.01 in    
Wind  
Wind Speed 13 mph (ENE)    
Max Wind Speed 22 mph    
Max Gust Speed 26 mph    
Visibility 10 miles    
Events      
T = Trace of Precipitation, MM = Missing Value Source: NWS Daily Summary

Daily Weather History Graph

Daily Weather History Graph

Search for Another Location

Airport:

Trip Planner

Search our weather history database for the weather conditions in past years. The results will help you decide how hot, cold, wet, or windy it might be!

Date:

Astronomy

Oct. 06, 2011 Rise Set
Actual Time 7:15 AM EDT 7:01 PM EDT
Civil Twilight 6:51 AM EDT 7:24 PM EDT
Nautical Twilight 6:25 AM EDT 7:51 PM EDT
Astronomical Twilight 5:58 AM EDT 8:18 PM EDT
Moon 3:50 PM EDT (10/6) 2:29 AM EDT (10/6)
Length of Visible Light 12h 32m
Length of Day
11h 46m
Waxing Gibbous, 75% of the Moon is Illuminated
Oct 6
Waxing Gibbous
Oct 11
Full
Oct 19
Last Quarter
Oct 26
New
Nov 2
First Quarter

Hourly Weather History & Observations

Time (EDT) Temp. Heat Index Dew Point Humidity Pressure Visibility Wind Dir Wind Speed Gust Speed Precip Events Conditions
12:53 AM 78.1 °F - 59.0 °F 52% 30.02 in 10.0 mi NE 9.2 mph - N/A   Scattered Clouds
1:53 AM 78.1 °F - 59.0 °F 52% 30.01 in 10.0 mi NE 9.2 mph - N/A   Partly Cloudy
2:53 AM 78.1 °F - 59.0 °F 52% 30.00 in 10.0 mi NE 6.9 mph - N/A   Scattered Clouds
3:53 AM 78.1 °F - 62.1 °F 58% 29.99 in 10.0 mi NE 6.9 mph - N/A   Scattered Clouds
4:53 AM 78.1 °F - 61.0 °F 56% 29.98 in 10.0 mi ENE 6.9 mph - N/A   Partly Cloudy
5:53 AM 77.0 °F - 61.0 °F 58% 29.99 in 10.0 mi ENE 8.1 mph - N/A   Partly Cloudy
6:53 AM 78.1 °F - 63.0 °F 60% 30.00 in 10.0 mi ENE 9.2 mph - N/A   Scattered Clouds
7:53 AM 79.0 °F - 64.0 °F 60% 30.01 in 10.0 mi ENE 10.4 mph - N/A   Scattered Clouds
8:53 AM 81.0 °F 82.5 °F 64.0 °F 56% 30.02 in 10.0 mi East 11.5 mph 20.7 mph N/A   Mostly Cloudy
9:53 AM 82.9 °F 84.4 °F 64.0 °F 53% 30.04 in 10.0 mi ENE 12.7 mph - N/A   Mostly Cloudy
10:53 AM 84.0 °F 85.4 °F 64.0 °F 51% 30.04 in 10.0 mi ENE 15.0 mph - N/A   Mostly Cloudy
11:53 AM 84.9 °F 85.9 °F 63.0 °F 48% 30.05 in 10.0 mi ENE 15.0 mph 23.0 mph N/A   Mostly Cloudy
12:53 PM 86.0 °F 87.6 °F 64.9 °F 49% 30.04 in 10.0 mi ENE 15.0 mph 20.7 mph N/A   Mostly Cloudy
1:53 PM 86.0 °F 87.6 °F 64.9 °F 49% 30.02 in 10.0 mi East 17.3 mph 25.3 mph N/A   Mostly Cloudy
2:53 PM 86.0 °F 88.2 °F 66.0 °F 51% 30.00 in 10.0 mi East 18.4 mph 25.3 mph N/A   Mostly Cloudy
3:53 PM 84.0 °F 85.8 °F 64.9 °F 53% 30.00 in 10.0 mi ENE 17.3 mph - N/A   Mostly Cloudy
4:53 PM 82.9 °F 84.4 °F 64.0 °F 53% 29.99 in 10.0 mi ENE 19.6 mph - N/A   Scattered Clouds
5:53 PM 82.9 °F 83.7 °F 62.1 °F 49% 30.00 in 10.0 mi ENE 17.3 mph 25.3 mph N/A   Scattered Clouds
6:53 PM 82.0 °F 83.0 °F 62.1 °F 51% 30.00 in 10.0 mi ENE 16.1 mph - N/A   Scattered Clouds
7:53 PM 81.0 °F 82.2 °F 63.0 °F 54% 30.01 in 10.0 mi ENE 13.8 mph - N/A   Mostly Cloudy
8:53 PM 81.0 °F 82.7 °F 64.9 °F 58% 30.02 in 10.0 mi ENE 12.7 mph - N/A   Scattered Clouds
9:53 PM 81.0 °F 83.0 °F 66.0 °F 60% 30.03 in 10.0 mi East 17.3 mph - N/A   Scattered Clouds
10:53 PM 81.0 °F 83.0 °F 66.0 °F 60% 30.04 in 10.0 mi East 15.0 mph - N/A   Scattered Clouds
11:53 PM 80.1 °F 82.1 °F 66.0 °F 62% 30.03 in 10.0 mi East 15.0 mph 23.0 mph N/A   Mostly Cloudy